ZSJWM EDDM-EDDN

Flight info

Callsign ZSJWM
Flight time 1h 18m
Altitude 7000
Route INPUD3Q INPUD Y102 UPALA UPALA1T
Aircraft C172/L-SFG/C

Departure

Time 2026-05-01 09:56
Airport Munich Airport (EDDM)

Arrival

Time 2026-05-01 11:14
Airport Nuremberg Airport (EDDN)
Time Latitude Longitude Altitude Speed Heading
2026-05-01 09:06 48.35794 11.80473 1463 ft 0 kts 131°
2026-05-01 09:27 48.35804 11.80502 1463 ft 0 kts 355°
2026-05-01 09:36 48.35812 11.80501 1463 ft 5 kts 353°
2026-05-01 09:36 48.35862 11.80425 1463 ft 17 kts 277°
2026-05-01 09:36 48.35865 11.80383 1463 ft 0 kts 276°
2026-05-01 09:46 48.35865 11.80361 1463 ft 8 kts 270°
2026-05-01 09:46 48.35862 11.80246 1463 ft 12 kts 271°
2026-05-01 09:46 48.35828 11.80064 1464 ft 15 kts 243°
2026-05-01 09:47 48.35816 11.80009 1464 ft 1 kts 304°
2026-05-01 09:47 48.35819 11.79989 1464 ft 0 kts 280°
2026-05-01 09:47 48.35820 11.79983 1464 ft 5 kts 280°
2026-05-01 09:47 48.35828 11.79918 1464 ft 5 kts 276°
2026-05-01 09:48 48.35829 11.79892 1464 ft 0 kts 271°
2026-05-01 09:48 48.35829 11.79885 1464 ft 5 kts 267°
2026-05-01 09:48 48.35824 11.79836 1464 ft 6 kts 253°
2026-05-01 09:48 48.35816 11.79778 1465 ft 9 kts 263°
2026-05-01 09:49 48.35814 11.79719 1465 ft 10 kts 271°
2026-05-01 09:49 48.35818 11.79627 1465 ft 4 kts 246°
2026-05-01 09:49 48.35810 11.79606 1465 ft 0 kts 242°
2026-05-01 09:49 48.35801 11.79573 1465 ft 0 kts 255°
2026-05-01 09:50 48.35794 11.79520 1465 ft 7 kts 266°
2026-05-01 09:50 48.35794 11.79470 1465 ft 5 kts 266°
2026-05-01 09:50 48.35799 11.79401 1466 ft 4 kts 330°
2026-05-01 09:50 48.35854 11.79385 1465 ft 8 kts 353°
2026-05-01 09:51 48.35907 11.79375 1465 ft 3 kts 332°
2026-05-01 09:51 48.35949 11.79341 1465 ft 3 kts 355°
2026-05-01 09:51 48.35999 11.79334 1464 ft 12 kts 354°
2026-05-01 09:51 48.36039 11.79328 1464 ft 8 kts 354°
2026-05-01 09:52 48.36044 11.79328 1464 ft 0 kts 354°
2026-05-01 09:52 48.36056 11.79326 1464 ft 0 kts 354°
2026-05-01 09:52 48.36077 11.79318 1464 ft 4 kts 299°
2026-05-01 09:52 48.36088 11.79221 1464 ft 16 kts 271°
2026-05-01 09:53 48.36072 11.78997 1465 ft 25 kts 262°
2026-05-01 09:53 48.36049 11.78733 1466 ft 23 kts 262°
2026-05-01 09:53 48.36035 11.78523 1466 ft 19 kts 276°
2026-05-01 09:53 48.36075 11.78485 1466 ft 8 kts 354°
2026-05-01 09:54 48.36157 11.78478 1466 ft 15 kts
2026-05-01 09:54 48.36235 11.78567 1466 ft 14 kts 52°
2026-05-01 09:54 48.36292 11.78686 1465 ft 12 kts 55°
2026-05-01 09:54 48.36301 11.78705 1465 ft 0 kts 52°
2026-05-01 09:55 48.36316 11.78735 1465 ft 12 kts 53°
2026-05-01 09:55 48.36377 11.78859 1466 ft 21 kts 54°
2026-05-01 09:55 48.36452 11.79136 1465 ft 40 kts 79°
2026-05-01 09:55 48.36497 11.79696 1539 ft 65 kts 83°
2026-05-01 09:56 48.36550 11.80410 1736 ft 75 kts 84°
2026-05-01 09:56 48.36602 11.81183 2053 ft 72 kts 88°
2026-05-01 09:56 48.36634 11.81948 2363 ft 77 kts 85°
2026-05-01 09:56 48.36742 11.82738 2741 ft 75 kts 81°
2026-05-01 09:57 48.36879 11.83509 3116 ft 80 kts 68°
2026-05-01 09:57 48.37355 11.84093 3330 ft 88 kts 51°
2026-05-01 09:57 48.37731 11.84654 3812 ft 76 kts 24°
2026-05-01 09:57 48.38182 11.84891 4243 ft 69 kts 37°
2026-05-01 09:58 48.38656 11.85129 4649 ft 72 kts 35°
2026-05-01 09:58 48.39131 11.85385 5007 ft 73 kts 32°
2026-05-01 09:58 48.39622 11.85615 5264 ft 73 kts 32°
2026-05-01 09:58 48.40094 11.85852 5614 ft 75 kts 33°
2026-05-01 09:59 48.40600 11.86100 6044 ft 74 kts 31°
2026-05-01 09:59 48.41034 11.86299 6312 ft 74 kts 31°
2026-05-01 09:59 48.41545 11.86455 6531 ft 81 kts
2026-05-01 09:59 48.42080 11.86057 6783 ft 91 kts 323°
2026-05-01 10:00 48.42494 11.85319 7113 ft 91 kts 322°
2026-05-01 10:00 48.42921 11.84587 7402 ft 97 kts 318°
2026-05-01 10:00 48.43416 11.83737 7425 ft 123 kts 317°
2026-05-01 10:00 48.44010 11.82699 7426 ft 136 kts 316°
2026-05-01 10:01 48.44627 11.81605 7411 ft 136 kts 315°
2026-05-01 10:01 48.45235 11.80536 7411 ft 133 kts 315°
2026-05-01 10:01 48.45842 11.79467 7405 ft 137 kts 316°
2026-05-01 10:01 48.46472 11.78362 7412 ft 135 kts 315°
2026-05-01 10:02 48.47082 11.77280 7408 ft 135 kts 315°
2026-05-01 10:02 48.47681 11.76190 7404 ft 137 kts 316°
2026-05-01 10:02 48.48318 11.75124 7406 ft 138 kts 316°
2026-05-01 10:02 48.48929 11.74040 7402 ft 131 kts 314°
2026-05-01 10:03 48.49481 11.73060 7393 ft 117 kts 317°
2026-05-01 10:03 48.50022 11.72120 7380 ft 115 kts 316°
2026-05-01 10:03 48.50538 11.71205 7388 ft 110 kts 316°
2026-05-01 10:03 48.51044 11.70318 7395 ft 115 kts 317°
2026-05-01 10:04 48.51560 11.69406 7396 ft 112 kts 316°
2026-05-01 10:04 48.52048 11.68551 7403 ft 119 kts 317°
2026-05-01 10:04 48.52591 11.67584 7406 ft 123 kts 315°
2026-05-01 10:04 48.53141 11.66609 7410 ft 124 kts 316°
2026-05-01 10:05 48.53727 11.65606 7406 ft 130 kts 316°
2026-05-01 10:05 48.54308 11.64552 7406 ft 132 kts 314°
2026-05-01 10:05 48.54901 11.63501 7404 ft 132 kts 316°
2026-05-01 10:05 48.55495 11.62447 7404 ft 133 kts 315°
2026-05-01 10:06 48.56094 11.61394 7403 ft 131 kts 317°
2026-05-01 10:06 48.56691 11.60340 7402 ft 135 kts 316°
2026-05-01 10:06 48.57412 11.59512 7411 ft 128 kts 346°
2026-05-01 10:06 48.58244 11.59045 7408 ft 127 kts 346°
2026-05-01 10:07 48.59056 11.58585 7394 ft 123 kts 347°
2026-05-01 10:07 48.59838 11.58126 7397 ft 120 kts 347°
2026-05-01 10:07 48.60637 11.57666 7399 ft 123 kts 347°
2026-05-01 10:07 48.61272 11.57298 7399 ft 124 kts 346°
2026-05-01 10:08 48.62043 11.56851 7398 ft 123 kts 347°
2026-05-01 10:08 48.62123 11.56806 7400 ft 123 kts 347°
2026-05-01 10:08 48.62479 11.56600 7397 ft 122 kts 346°
2026-05-01 10:09 48.62925 11.56341 7391 ft 120 kts 347°
2026-05-01 10:09 48.63341 11.56099 7397 ft 118 kts 346°
2026-05-01 10:09 48.63572 11.55960 7408 ft 118 kts 347°
2026-05-01 10:09 48.64188 11.55609 7413 ft 123 kts 348°
2026-05-01 10:10 48.64725 11.55302 7397 ft 121 kts 346°
2026-05-01 10:10 48.65334 11.54946 7394 ft 118 kts 347°
2026-05-01 10:10 48.66165 11.54464 7398 ft 116 kts 347°
2026-05-01 10:11 48.66354 11.54354 7397 ft 116 kts 347°
2026-05-01 10:11 48.66481 11.54281 7396 ft 116 kts 348°
2026-05-01 10:11 48.66670 11.54173 7398 ft 116 kts 347°
2026-05-01 10:11 48.66831 11.54080 7391 ft 116 kts 347°
2026-05-01 10:12 48.66956 11.54007 7389 ft 116 kts 347°
2026-05-01 10:12 48.67231 11.53846 7403 ft 115 kts 347°
2026-05-01 10:12 48.67861 11.53485 7399 ft 115 kts 347°
2026-05-01 10:13 48.68211 11.53282 7401 ft 115 kts 347°
2026-05-01 10:13 48.68696 11.53000 7414 ft 117 kts 347°
2026-05-01 10:13 48.69137 11.52752 7413 ft 122 kts 348°
2026-05-01 10:14 48.70634 11.51879 7409 ft 118 kts 348°
2026-05-01 10:14 48.71409 11.51432 7403 ft 119 kts 347°
2026-05-01 10:14 48.72190 11.50978 7412 ft 121 kts 347°
2026-05-01 10:14 48.72979 11.50524 7413 ft 123 kts 348°
2026-05-01 10:15 48.73780 11.50063 7412 ft 124 kts 346°
2026-05-01 10:15 48.74580 11.49587 7413 ft 124 kts 346°
2026-05-01 10:15 48.75370 11.49134 7393 ft 120 kts 347°
2026-05-01 10:15 48.76139 11.48688 7392 ft 117 kts 347°
2026-05-01 10:16 48.76901 11.48249 7399 ft 118 kts 347°
2026-05-01 10:16 48.77683 11.47793 7404 ft 122 kts 347°
2026-05-01 10:16 48.79266 11.46875 7412 ft 122 kts 346°
2026-05-01 10:17 48.80059 11.46409 7410 ft 122 kts 347°
2026-05-01 10:17 48.81637 11.45496 7396 ft 119 kts 347°
2026-05-01 10:17 48.82405 11.45050 7397 ft 117 kts 348°
2026-05-01 10:18 48.83930 11.44150 7391 ft 115 kts 348°
2026-05-01 10:18 48.84683 11.43723 7391 ft 113 kts 348°
2026-05-01 10:18 48.85404 11.43304 7388 ft 112 kts 348°
2026-05-01 10:19 48.86130 11.42880 7392 ft 112 kts 348°
2026-05-01 10:19 48.86858 11.42456 7391 ft 112 kts 348°
2026-05-01 10:19 48.87579 11.42035 7388 ft 110 kts 348°
2026-05-01 10:20 48.89069 11.41173 7411 ft 122 kts 347°
2026-05-01 10:20 48.89867 11.40699 7405 ft 121 kts 347°
2026-05-01 10:20 48.90640 11.40253 7405 ft 122 kts 347°
2026-05-01 10:20 48.91429 11.39788 7390 ft 120 kts 347°
2026-05-01 10:21 48.92196 11.39336 7383 ft 117 kts 347°
2026-05-01 10:21 48.93698 11.38460 7382 ft 114 kts 347°
2026-05-01 10:21 48.94436 11.38029 7385 ft 114 kts 348°
2026-05-01 10:22 48.95977 11.37125 7398 ft 119 kts 347°
2026-05-01 10:22 48.97494 11.36240 7389 ft 115 kts 347°
2026-05-01 10:23 48.98249 11.35800 7391 ft 117 kts 346°
2026-05-01 10:23 48.99797 11.34893 7389 ft 119 kts 347°
2026-05-01 10:23 49.00560 11.34439 7383 ft 116 kts 348°
2026-05-01 10:24 49.02067 11.33560 7387 ft 116 kts 348°
2026-05-01 10:24 49.03600 11.32658 7388 ft 117 kts 347°
2026-05-01 10:25 49.05150 11.31748 7390 ft 119 kts 348°
2026-05-01 10:25 49.06705 11.30838 7231 ft 123 kts 347°
2026-05-01 10:26 49.07556 11.30342 6560 ft 139 kts 346°
2026-05-01 10:26 49.08499 11.29796 5712 ft 147 kts 345°
2026-05-01 10:26 49.10145 11.28796 5372 ft 101 kts 348°
2026-05-01 10:27 49.11313 11.28104 5312 ft 83 kts 352°
2026-05-01 10:27 49.12318 11.27523 5330 ft 73 kts 352°
2026-05-01 10:28 49.12782 11.27237 5388 ft 75 kts
2026-05-01 10:28 49.13962 11.26592 5523 ft 99 kts 349°
2026-05-01 10:28 49.14614 11.26181 5450 ft 101 kts 350°
2026-05-01 10:29 49.15923 11.25397 5392 ft 94 kts 351°
2026-05-01 10:29 49.16557 11.25026 5385 ft 97 kts 349°
2026-05-01 10:30 49.17601 11.24426 5401 ft 95 kts 351°
2026-05-01 10:30 49.18837 11.23697 5389 ft 98 kts 349°
2026-05-01 10:31 49.19977 11.23000 5381 ft 84 kts 350°
2026-05-01 10:31 49.20791 11.22520 5376 ft 75 kts 353°
2026-05-01 10:32 49.21552 11.22033 5380 ft 80 kts 333°
2026-05-01 10:32 49.21877 11.21555 5401 ft 82 kts 329°
2026-05-01 10:32 49.22533 11.20662 5391 ft 78 kts 331°
2026-05-01 10:33 49.23408 11.19491 5399 ft 85 kts 328°
2026-05-01 10:33 49.24335 11.18252 5405 ft 90 kts 327°
2026-05-01 10:34 49.24790 11.17649 5395 ft 84 kts 327°
2026-05-01 10:34 49.25238 11.17052 5415 ft 92 kts 326°
2026-05-01 10:34 49.25761 11.16353 5465 ft 104 kts 325°
2026-05-01 10:35 49.26806 11.14932 5398 ft 93 kts 326°
2026-05-01 10:35 49.27296 11.14274 5398 ft 95 kts 326°
2026-05-01 10:35 49.27784 11.13616 5386 ft 91 kts 326°
2026-05-01 10:35 49.28259 11.12985 5398 ft 93 kts 330°
2026-05-01 10:36 49.29300 11.11702 5412 ft 94 kts 355°
2026-05-01 10:36 49.29935 11.11725 5403 ft 92 kts 23°
2026-05-01 10:36 49.30565 11.11869 5409 ft 93 kts 21°
2026-05-01 10:37 49.31183 11.12014 5394 ft 85 kts 22°
2026-05-01 10:37 49.32271 11.12261 5393 ft 78 kts 23°
2026-05-01 10:37 49.32841 11.12409 5404 ft 87 kts 21°
2026-05-01 10:38 49.33407 11.12557 5399 ft 83 kts 21°
2026-05-01 10:38 49.33946 11.12668 5409 ft 84 kts 21°
2026-05-01 10:38 49.34536 11.12799 5409 ft 84 kts 21°
2026-05-01 10:38 49.35135 11.12932 5401 ft 85 kts 21°
2026-05-01 10:39 49.35695 11.13059 5388 ft 79 kts 22°
2026-05-01 10:39 49.36220 11.13185 5393 ft 74 kts 22°
2026-05-01 10:39 49.36726 11.13304 5390 ft 72 kts 23°
2026-05-01 10:39 49.37219 11.13418 5387 ft 70 kts 24°
2026-05-01 10:40 49.37704 11.13538 5410 ft 76 kts 25°
2026-05-01 10:40 49.38282 11.13668 5416 ft 94 kts 12°
2026-05-01 10:40 49.38894 11.13297 5411 ft 98 kts 331°
2026-05-01 10:40 49.39300 11.12449 5405 ft 98 kts 289°
2026-05-01 10:41 49.39408 11.11427 5398 ft 97 kts 278°
2026-05-01 10:41 49.39523 11.10386 5415 ft 105 kts 276°
2026-05-01 10:41 49.39729 11.08155 5407 ft 101 kts 276°
2026-05-01 10:42 49.39832 11.07090 5392 ft 99 kts 278°
2026-05-01 10:42 49.39940 11.06078 5397 ft 99 kts 277°
2026-05-01 10:42 49.40046 11.05029 5397 ft 100 kts 277°
2026-05-01 10:42 49.40149 11.03966 5392 ft 98 kts 277°
2026-05-01 10:43 49.40251 11.02916 5408 ft 102 kts 276°
2026-05-01 10:43 49.40350 11.01843 5407 ft 101 kts 278°
2026-05-01 10:43 49.40457 11.00784 5403 ft 99 kts 276°
2026-05-01 10:43 49.40564 10.99710 5399 ft 101 kts 277°
2026-05-01 10:44 49.40667 10.98664 5407 ft 101 kts 277°
2026-05-01 10:44 49.40775 10.97566 5410 ft 105 kts 277°
2026-05-01 10:44 49.40883 10.96451 5405 ft 108 kts 276°
2026-05-01 10:44 49.40991 10.95330 5402 ft 105 kts 277°
2026-05-01 10:45 49.41094 10.94238 5398 ft 102 kts 275°
2026-05-01 10:45 49.41202 10.93145 5403 ft 107 kts 277°
2026-05-01 10:45 49.41324 10.91977 5418 ft 111 kts 276°
2026-05-01 10:45 49.41423 10.90807 5401 ft 109 kts 277°
2026-05-01 10:46 49.41546 10.89662 5398 ft 107 kts 277°
2026-05-01 10:46 49.41646 10.88634 5400 ft 108 kts 277°
2026-05-01 10:46 49.41753 10.87486 5393 ft 100 kts 278°
2026-05-01 10:46 49.41851 10.86435 5389 ft 100 kts 278°
2026-05-01 10:47 49.41956 10.85378 5399 ft 103 kts 275°
2026-05-01 10:47 49.42063 10.84249 5416 ft 111 kts 277°
2026-05-01 10:47 49.42182 10.83043 5413 ft 115 kts 277°
2026-05-01 10:47 49.42306 10.81835 5417 ft 114 kts 277°
2026-05-01 10:48 49.42408 10.80624 5409 ft 115 kts 279°
2026-05-01 10:48 49.42522 10.79419 5403 ft 111 kts 278°
2026-05-01 10:48 49.42641 10.78270 5402 ft 109 kts 277°
2026-05-01 10:48 49.42759 10.77083 5408 ft 115 kts 278°
2026-05-01 10:49 49.42869 10.75868 5416 ft 115 kts 277°
2026-05-01 10:49 49.42989 10.74657 5399 ft 111 kts 277°
2026-05-01 10:49 49.43105 10.73520 5398 ft 109 kts 276°
2026-05-01 10:49 49.43192 10.72364 5394 ft 108 kts 276°
2026-05-01 10:50 49.43307 10.71270 5392 ft 100 kts 277°
2026-05-01 10:50 49.43406 10.70247 5394 ft 96 kts 277°
2026-05-01 10:50 49.43500 10.69246 5393 ft 93 kts 277°
2026-05-01 10:50 49.43592 10.68272 5407 ft 92 kts 274°
2026-05-01 10:51 49.43690 10.67210 5413 ft 104 kts 277°
2026-05-01 10:51 49.43764 10.66477 5414 ft 100 kts 277°
2026-05-01 10:51 49.43880 10.65250 5406 ft 95 kts 277°
2026-05-01 10:51 49.43973 10.64263 5396 ft 90 kts 276°
2026-05-01 10:52 49.44063 10.63322 5401 ft 91 kts 278°
2026-05-01 10:52 49.44154 10.62299 5413 ft 103 kts 276°
2026-05-01 10:52 49.44259 10.61231 5415 ft 98 kts 276°
2026-05-01 10:52 49.44354 10.60193 5405 ft 101 kts 276°
2026-05-01 10:53 49.44453 10.59115 5410 ft 107 kts 278°
2026-05-01 10:53 49.44564 10.57989 5404 ft 106 kts 277°
2026-05-01 10:53 49.44672 10.56883 5404 ft 107 kts 276°
2026-05-01 10:53 49.44772 10.55785 5396 ft 100 kts 277°
2026-05-01 10:54 49.44864 10.54802 5392 ft 90 kts 277°
2026-05-01 10:54 49.44953 10.53861 5366 ft 88 kts 272°
2026-05-01 10:54 49.45034 10.52930 5399 ft 87 kts 278°
2026-05-01 10:54 49.45128 10.51968 5411 ft 93 kts 276°
2026-05-01 10:55 49.45219 10.50970 5428 ft 96 kts 276°
2026-05-01 10:55 49.45325 10.49928 5415 ft 98 kts 285°
2026-05-01 10:55 49.45718 10.49144 5419 ft 92 kts 342°
2026-05-01 10:55 49.46124 10.48940 5407 ft 90 kts
2026-05-01 10:56 49.46862 10.49075 5414 ft 84 kts 20°
2026-05-01 10:56 49.47394 10.49191 5418 ft 85 kts 22°
2026-05-01 10:56 49.47957 10.49311 5402 ft 83 kts 23°
2026-05-01 10:56 49.48277 10.49382 5395 ft 79 kts 25°
2026-05-01 10:57 49.48806 10.49493 5386 ft 72 kts 26°
2026-05-01 10:57 49.49282 10.49594 5381 ft 64 kts 27°
2026-05-01 10:57 49.49692 10.49690 5309 ft 60 kts 30°
2026-05-01 10:57 49.50091 10.49773 5296 ft 54 kts 33°
2026-05-01 10:58 49.50452 10.49850 5260 ft 51 kts 33°
2026-05-01 10:58 49.50795 10.49899 5229 ft 48 kts 36°
2026-05-01 10:58 49.51114 10.49989 5325 ft 50 kts 31°
2026-05-01 10:58 49.51468 10.50076 5515 ft 58 kts 26°
2026-05-01 10:59 49.51861 10.50177 5709 ft 62 kts 26°
2026-05-01 10:59 49.52307 10.50274 5900 ft 67 kts 25°
2026-05-01 10:59 49.52934 10.50448 5715 ft 113 kts 19°
2026-05-01 10:59 49.53493 10.50524 6404 ft 64 kts 26°
2026-05-01 11:00 49.53986 10.50661 6583 ft 88 kts 21°
2026-05-01 11:00 49.54378 10.50751 6501 ft 83 kts 30°
2026-05-01 11:00 49.54863 10.51269 6049 ft 91 kts 57°
2026-05-01 11:00 49.55158 10.52179 5423 ft 101 kts 83°
2026-05-01 11:01 49.55110 10.53261 4702 ft 108 kts 101°
2026-05-01 11:01 49.55010 10.54247 4588 ft 76 kts 99°
2026-05-01 11:01 49.54924 10.55112 4595 ft 92 kts 99°
2026-05-01 11:01 49.54842 10.55972 4612 ft 103 kts 98°
2026-05-01 11:02 49.54722 10.57074 4619 ft 105 kts 101°
2026-05-01 11:02 49.54574 10.58178 4597 ft 105 kts 102°
2026-05-01 11:02 49.54448 10.59155 4626 ft 106 kts 99°
2026-05-01 11:02 49.54341 10.60146 4590 ft 110 kts 99°
2026-05-01 11:03 49.54250 10.60899 4585 ft 109 kts 102°
2026-05-01 11:03 49.54290 10.62015 4586 ft 110 kts 88°
2026-05-01 11:03 49.54211 10.63173 4607 ft 110 kts 95°
2026-05-01 11:03 49.54123 10.64316 4589 ft 103 kts 98°
2026-05-01 11:04 49.54030 10.65388 4599 ft 97 kts 95°
2026-05-01 11:04 49.53935 10.66420 4590 ft 95 kts 101°
2026-05-01 11:04 49.53838 10.67422 4589 ft 94 kts 98°
2026-05-01 11:04 49.53736 10.68420 4592 ft 95 kts 98°
2026-05-01 11:05 49.53644 10.69433 4589 ft 96 kts 98°
2026-05-01 11:05 49.53544 10.70428 4586 ft 97 kts 96°
2026-05-01 11:05 49.53444 10.71443 4594 ft 95 kts 99°
2026-05-01 11:05 49.53350 10.72465 4609 ft 97 kts 96°
2026-05-01 11:06 49.53237 10.73501 4590 ft 104 kts 98°
2026-05-01 11:06 49.53132 10.74561 4587 ft 97 kts 98°
2026-05-01 11:06 49.53040 10.75582 4598 ft 97 kts 98°
2026-05-01 11:07 49.52831 10.77682 4589 ft 103 kts 98°
2026-05-01 11:07 49.52720 10.78745 4587 ft 99 kts 101°
2026-05-01 11:07 49.52618 10.79815 4479 ft 103 kts 96°
2026-05-01 11:07 49.52507 10.80947 4343 ft 111 kts 97°
2026-05-01 11:08 49.52394 10.82140 4179 ft 114 kts 99°
2026-05-01 11:08 49.52277 10.83347 4038 ft 118 kts 97°
2026-05-01 11:08 49.52037 10.85678 3728 ft 102 kts 96°
2026-05-01 11:09 49.51940 10.86751 3584 ft 98 kts 97°
2026-05-01 11:09 49.51840 10.87793 3436 ft 96 kts 97°
2026-05-01 11:09 49.51741 10.88782 3318 ft 92 kts 99°
2026-05-01 11:10 49.51564 10.90819 3050 ft 100 kts 98°
2026-05-01 11:10 49.51442 10.91853 2922 ft 99 kts 98°
2026-05-01 11:10 49.51338 10.92877 2792 ft 96 kts 98°
2026-05-01 11:10 49.51240 10.93857 2668 ft 93 kts 94°
2026-05-01 11:11 49.51146 10.94845 2534 ft 91 kts 96°
2026-05-01 11:11 49.51046 10.95792 2408 ft 89 kts 96°
2026-05-01 11:11 49.50963 10.96716 2299 ft 87 kts 97°
2026-05-01 11:11 49.50873 10.97632 2180 ft 85 kts 97°
2026-05-01 11:12 49.50786 10.98525 2057 ft 85 kts 97°
2026-05-01 11:12 49.50693 10.99440 1923 ft 86 kts 98°
2026-05-01 11:12 49.50606 11.00340 1805 ft 84 kts 97°
2026-05-01 11:12 49.50526 11.01120 1703 ft 72 kts 97°
2026-05-01 11:13 49.50445 11.01962 1599 ft 86 kts 99°
2026-05-01 11:13 49.50357 11.02862 1483 ft 85 kts 100°
2026-05-01 11:13 49.50274 11.03706 1369 ft 73 kts 100°
2026-05-01 11:13 49.50194 11.04518 1266 ft 72 kts 99°
2026-05-01 11:14 49.50127 11.05205 1151 ft 66 kts 99°
2026-05-01 11:14 49.50060 11.05888 1057 ft 60 kts 99°
2026-05-01 11:14 49.50005 11.06431 1028 ft 55 kts 99°
2026-05-01 11:14 49.49957 11.06920 1029 ft 29 kts 95°
2026-05-01 11:15 49.49932 11.07003 1031 ft 11 kts 168°
2026-05-01 11:15 49.49853 11.07028 1031 ft 7 kts 158°
2026-05-01 11:15 49.49815 11.07052 1030 ft 5 kts 158°
2026-05-01 11:15 49.49792 11.07066 1030 ft 1 kts 158°
2026-05-01 11:16 49.49776 11.07076 1030 ft 8 kts 158°
2026-05-01 11:16 49.49740 11.07171 1032 ft 13 kts 101°
2026-05-01 11:16 49.49674 11.07232 1031 ft 15 kts 191°
2026-05-01 11:16 49.49556 11.07197 1027 ft 13 kts 187°
2026-05-01 11:17 49.49513 11.07192 1025 ft 6 kts 168°
2026-05-01 11:17 49.49507 11.07218 1025 ft 1 kts 62°
2026-05-01 11:17 49.49511 11.07244 1026 ft 5 kts 81°
2026-05-01 11:17 49.49508 11.07329 1027 ft 10 kts 113°
2026-05-01 11:18 49.49465 11.07425 1026 ft 10 kts 176°
2026-05-01 11:18 49.49409 11.07429 1024 ft 6 kts 135°
2026-05-01 11:18 49.49407 11.07432 1024 ft 0 kts 96°